This is the latest recevied weather packets stored in our database for station/object IZ4MEH-10. If no packets are shown the sender has not sent any weather packets the latest 10 day(s).
| Time | Temp. | Humidity | Pressure | Rain* | Wind** | Luminosity | Snow |
|---|---|---|---|---|---|---|---|
| 1777855251 | 17.22° C | 48% | 1014.8 hPa | - | - | - | - |
| 1777853450 | 16.67° C | 49% | 1015 hPa | - | - | - | - |
| 1777851649 | 17.22° C | 48% | 1015.1 hPa | - | - | - | - |
| 1777848047 | 17.78° C | 48% | 1015.3 hPa | - | - | - | - |
| 1777846245 | 18.33° C | 46% | 1015.2 hPa | - | - | - | - |
| 1777844444 | 18.89° C | 45% | 1014.9 hPa | - | - | - | - |
| 1777842642 | 19.44° C | 42% | 1014.7 hPa | - | - | - | - |
| 1777840841 | 20° C | 44% | 1014.4 hPa | - | - | - | - |
| 1777839040 | 20° C | 45% | 1014.5 hPa | - | - | - | - |
| 1777837238 | 20.56° C | 43% | 1014.3 hPa | - | - | - | - |
| 1777835436 | 21.67° C | 39% | 1014 hPa | - | - | - | - |
| 1777833634 | 22.78° C | 37% | 1013.8 hPa | - | - | - | - |
| 1777831833 | 23.33° C | 41% | 1013.5 hPa | - | - | - | - |
| 1777830031 | 24.44° C | 33% | 1013.3 hPa | - | - | - | - |
| 1777828230 | 25° C | 32% | 1013.4 hPa | - | - | - | - |
| 1777826430 | 25.56° C | 32% | 1013.5 hPa | - | - | - | - |
| 1777824628 | 26.67° C | 31% | 1013.6 hPa | - | - | - | - |
| 1777822827 | 26.11° C | 31% | 1013.6 hPa | - | - | - | - |
| 1777821026 | 26.11° C | 31% | 1014 hPa | - | - | - | - |
| 1777819225 | 27.22° C | 30% | 1014.3 hPa | - | - | - | - |
| 1777817424 | 27.78° C | 30% | 1014.7 hPa | - | - | - | - |
| 1777815622 | 28.33° C | 28% | 1015 hPa | - | - | - | - |
| 1777813821 | 29.44° C | 26% | 1015.5 hPa | - | - | - | - |
| 1777812019 | 28.89° C | 27% | 1015.6 hPa | - | - | - | - |
| 1777810217 | 28.89° C | 27% | 1015.7 hPa | - | - | - | - |
* Rain since midnight (hover to see other rain measurements)
** Current wind speed in m/s (hover to see current wind gust speed)